Regional Weather Roundup
Issued by NWS Sterling, VA

Home | Current Version | Previous Version | Graphics & Text | Print | Product List | Glossary On
Versions: 1 2 3 4 5 6 7 8 9 10 11 12 13 14 15 16 17 18 19 20 21 22 23 24 25 26 27 28 29 30 31 32 33 34 35 36 37 38 39 40 41 42 43 44 45 46
000
ASUS41 KLWX 280210
RWRLWX

REGIONAL WEATHER ROUNDUP
NATIONAL WEATHER SERVICE BALTIMORE MD/WASHINGTON DC
1000 PM EDT THU AUG 27 2015

Note: "FAIR" indicates few or no clouds below 12,000 feet
with no significant weather and/or obstructions to visibility.
 TC=TEMPERATURE CELSIUS

 * =Non NWS site. Station does not report precipitation (e.g. rain,
    snow, etc.), thunder, or fog.

DCZ001-MDZ009-015-VAZ040>042-051-053>054-280300-
WASHINGTON METRO

CITY           SKY/WX    TMP DP  RH WIND       PRES   REMARKS
WASHINGTON NAT CLEAR     73  58  59 E6        30.15R
DULLES         MOCLDY    68  56  65 CALM      30.15R
ANDREWS AFB    CLEAR     69  59  70 N5        30.14R
FT BELVOIR     CLEAR     64  58  83 CALM      30.14R
QUANTICO       PTCLDY    68  61  78 NW7       30.15R
COLLEGE PARK*  CLEAR     64  61  88 CALM      30.15R
LEESBURG*      CLOUDY    68  61  77 CALM      30.17R
GAITHERSBURG*  CLEAR     61  54  77 CALM      30.19R

$$

MDZ006>007-011-014-280300-
BALTIMORE METRO

CITY           SKY/WX    TMP DP  RH WIND       PRES   REMARKS
BWI AIRPORT    PTCLDY    65  58  78 CALM      30.14R
MD SCIENCE CTR   N/A     73  56  54 MISG      30.14R
MARTIN STATE   MOCLDY    68  61  77 NW3       30.15R
ANNAPOLIS      CLEAR     72  60  66 N3        30.13R
FORT MEADE*    CLEAR     61  59  94 CALM      30.17R

$$

MDZ012-015-019>023-280300-
MARYLAND EASTERN SHORE

CITY           SKY/WX    TMP DP  RH WIND       PRES   REMARKS
OCEAN CITY     MOCLDY    67  62  84 CALM      30.12R
SALISBURY      PTCLDY    64  60  87 CALM      30.12R
BAY BRIDGE AP*   N/A     72  55  56 CALM      30.14R
CAMBRIDGE*     PTCLDY    63  59  88 CALM      30.13R

$$

MDZ017>025-280300-
SOUTHERN MARYLAND

CITY           SKY/WX    TMP DP  RH WIND       PRES   REMARKS
PATUXENT RIVER MOCLDY    62  59  90 W3        30.13R
ST INIGOES     PTCLDY    65  61  87 CALM      30.12R
LEONARDTOWN*   CLEAR     63  57  82 CALM      30.15R

$$

MDZ003>005-280300-
NORTH CENTRAL MARYLAND

CITY           SKY/WX    TMP DP  RH WIND       PRES   REMARKS
FREDERICK*     CLEAR     59  59 100 CALM      30.18R
HAGERSTOWN APT CLEAR     69  53  56 N3        30.16R
WESTMINSTER*   PTCLDY    66  59  77 CALM      30.17R

$$

MDZ501>502-280300-
WESTERN MARYLAND

CITY           SKY/WX    TMP DP  RH WIND       PRES   REMARKS
OAKLAND*       CLEAR     55  50  82 CALM      30.24R
CUMBERLAND*    CLEAR     63  55  77 CALM      30.22R

$$

VAZ025>031-280300-
SHENANDOAH VALLEY

CITY           SKY/WX    TMP DP  RH WIND       PRES   REMARKS
WINCHESTER*    CLOUDY    63  54  72 CALM      30.17R
FRONT ROYAL*   FAIR      63  55  77 CALM      30.16R
LURAY*         FAIR      63  55  77 N5        30.18R
NEW MARKET*    FAIR      62  55  80 CALM      30.17R
STAUNTON*      CLOUDY    73  57  57 NE6       30.19R
WAYNESBORO*    CLOUDY    71  57  62 CALM      30.19R

$$

WVZ021-048>050-054>055-280300-
EASTERN WEST VIRGINIA PANHANDLE

CITY           SKY/WX    TMP DP  RH WIND       PRES   REMARKS
MARTINSBURG    CLEAR     61  55  81 CALM      30.17R
PETERSBURG*    FAIR      62  56  82 CALM      30.20R

$$

VAZ036>039-050-280300-
CENTRAL FOOTHILLS

CITY           SKY/WX    TMP DP  RH WIND       PRES   REMARKS
CHARLOTTESVILL MOCLDY    69  59  70 NE3       30.15R
CULPEPER*      MOCLDY    64  59  84 CALM      30.16R
ORANGE*        MOCLDY    64  61  88 CALM      30.16R
GORDONSVILLE*  MOCLDY    64  62  92 CALM      30.15R
WARRENTON*     FAIR      67  60  79 CALM      30.15R

$$

VAZ055>057-280300-
NORTH AND CENTRAL PIEDMONT

CITY           SKY/WX    TMP DP  RH WIND       PRES   REMARKS
FREDERICKSBRG* MOCLDY    68  60  75 CALM      30.14R
STAFFORD*      CLEAR     62  57  83 NE3       30.18R

$$

NCZ024-NYZ072-PAZ021-071-VAZ022-071-280300-
OTHER REGIONAL OBSERVATIONS

CITY           SKY/WX    TMP DP  RH WIND       PRES   REMARKS
NEW YORK CITY  CLEAR     73  51  46 VRB5      30.13R
PHILADELPHIA   CLEAR     73  53  49 NW7       30.13R
PITTSBURGH     CLOUDY    66  57  72 CALM      30.18R
ROANOKE        PTCLDY    71  59  65 CALM      30.17R
RICHMOND       PTCLDY    69  60  73 CALM      30.13R
RALEIGH        PTCLDY    71  59  65 E5        30.12R

$$

ANZ530>537-280300-
MARINE OBSERVATIONS

STATION/POSITION TIME  TEMP    WIND        PRES
                       AIR SEA DIR/SP/G
                 (UTC) (F)     (DEG/KT/KT) (MB)
THOMAS PT LIGHT  NOT AVBL
BALT KEY BRIDGE  0100   74     350/  7/  8 1019.9R
COVE POINT       0100   75      70/  5/  7 1020.3R
LEWISETTA        0100   76 80   80/  3/  4 1019.3R
SOLOMONS ISLAND  0100      81                N/A
PINEY POINT      0100           60/  3/  4   N/A

$$



USA.gov is the U.S. government's official web portal to all federal, state and local government web resources and services.